Milford, UT

2:01 PM MDT on August 28, 2016 (GMT -0600)
Milford Municipal

Weather History for KMLF - April, 2013

Change the Weather History Date:

Saturday, April 6, 2013

  Actual Average Record
Temperature  
Mean Temperature 52 °F -  
Max Temperature 70 °F 56 °F 72 °F (2007)
Min Temperature 33 °F 28 °F 19 °F (2003)
Degree Days  
Heating Degree Days 14    
Growing Degree Days 2 (Base 50)    
Moisture  
Dew Point 28 °F    
Average Humidity 45    
Maximum Humidity 85    
Minimum Humidity 6    
Precipitation  
Precipitation 0.00 in - - ()
Sea Level Pressure  
Sea Level Pressure 29.90 in    
Wind  
Wind Speed 6 mph (WSW)    
Max Wind Speed 14 mph    
Max Gust Speed 21 mph    
Visibility 10 miles    
Events      
Averages and records for this station are not official NWS values.
T = Trace of Precipitation, MM = Missing Value Source: NWS Daily Summary

Daily Weather History Graph

Daily Weather History Graph

Search for Another Location

Airport or City:

Trip Planner

Search our weather history database for the weather conditions in past years. The results will help you decide how hot, cold, wet, or windy it might be!

Date:

Astronomy

Apr. 06, 2013 Rise Set
Actual Time 7:08 AM MDT 8:00 PM MDT
Civil Twilight 6:42 AM MDT 8:27 PM MDT
Nautical Twilight 6:10 AM MDT 8:59 PM MDT
Astronomical Twilight 5:37 AM MDT 9:32 PM MDT
Moon 4:52 AM MDT (4/6) 4:35 PM MDT (4/6)
Length of Visible Light 13h 45m
Length of Day
12h 51m
Waning Crescent, 14% of the Moon is Illuminated
Apr 6
Waning Crescent
Apr 10
New
Apr 18
First Quarter
Apr 25
Full
May 2
Last Quarter

Hourly Weather History & Observations

Time (MDT) Temp. Windchill Dew Point Humidity Pressure Visibility Wind Dir Wind Speed Gust Speed Precip Events Conditions
12:52 AM 44.1 °F 40.1 °F 33.1 °F 65% 29.90 in 10.0 mi NNW 6.9 mph - N/A   Clear
1:52 AM 41.0 °F - 33.1 °F 73% 29.91 in 10.0 mi Calm Calm - N/A   Clear
2:52 AM 42.1 °F - 32.0 °F 67% 29.91 in 10.0 mi Calm Calm - N/A   Clear
3:52 AM 36.0 °F 31.1 °F 30.9 °F 82% 29.92 in 10.0 mi WSW 5.8 mph - N/A   Clear
4:52 AM 34.0 °F 31.0 °F 30.0 °F 85% 29.93 in 10.0 mi South 3.5 mph - N/A   Clear
5:52 AM 34.0 °F 31.0 °F 28.9 °F 82% 29.94 in 10.0 mi South 3.5 mph - N/A   Clear
6:52 AM 34.0 °F 31.0 °F 30.0 °F 85% 29.94 in 10.0 mi SW 3.5 mph - N/A   Clear
7:52 AM 37.9 °F 32.1 °F 30.9 °F 76% 29.96 in 10.0 mi SW 8.1 mph - N/A   Mostly Cloudy
8:52 AM 39.9 °F 35.8 °F 33.1 °F 77% 29.99 in 10.0 mi South 5.8 mph - N/A   Overcast
9:52 AM 48.0 °F - 35.1 °F 61% 29.97 in 10.0 mi South 6.9 mph - N/A   Overcast
10:52 AM 55.9 °F - 35.1 °F 45% 29.94 in 10.0 mi South 9.2 mph - N/A   Partly Cloudy
11:52 AM 59.0 °F - 34.0 °F 39% 29.93 in 10.0 mi South 11.5 mph - N/A   Clear
12:52 PM 62.1 °F - 33.1 °F 34% 29.91 in 10.0 mi South 6.9 mph - N/A   Clear
1:52 PM 64.0 °F - 26.1 °F 24% 29.88 in 10.0 mi SSW 6.9 mph - N/A   Mostly Cloudy
2:52 PM 64.9 °F - 25.0 °F 22% 29.86 in 10.0 mi Variable 5.8 mph - N/A   Mostly Cloudy
3:52 PM 66.9 °F - 21.0 °F 17% 29.83 in 10.0 mi West 12.7 mph 20.7 mph N/A   Clear
4:52 PM 68.0 °F - 18.0 °F 15% 29.83 in 10.0 mi Variable 5.8 mph 20.7 mph N/A   Clear
5:52 PM 69.1 °F - 17.1 °F 14% 29.81 in 10.0 mi NW 13.8 mph - N/A   Mostly Cloudy
6:52 PM 64.9 °F - 17.1 °F 16% 29.83 in 10.0 mi NW 11.5 mph - N/A   Clear
7:52 PM 60.1 °F - 24.1 °F 25% 29.85 in 10.0 mi North 10.4 mph - N/A   Scattered Clouds
8:52 PM 53.1 °F - 25.0 °F 34% 29.88 in 10.0 mi NNE 11.5 mph - N/A   Mostly Cloudy
9:52 PM 52.0 °F - 25.0 °F 35% 29.88 in 10.0 mi North 9.2 mph - N/A   Mostly Cloudy
10:52 PM 50.0 °F - 26.1 °F 39% 29.86 in 10.0 mi NNW 11.5 mph - N/A   Clear
11:52 PM 48.9 °F - 27.0 °F 43% 29.86 in 10.0 mi NNW 9.2 mph - N/A   Clear